Погода в Рыбном

Россия / Красноярский край     55°46′52″N   94°47′46″E
темп.,
°C
ветер,
м/с
пор.,
м/с
влажн.,
%
обл.,
%
осадки,
мм/ч
давл.,
гПа
погр.,
м
20 января, ср
ср2001:00−15з51290100 0.1 1017802
04:00−18зсз91592100 0.2 10181043
07:00−22з61288100 0.3 1024797
10:00−25з51092100 0.0 1029427
13:00−24з588793 0.0 1032640
16:00−26зсз23909 0.0 103220
19:00−31зсз11954 0.0 103519
22:00−31ююз12910 0.0 103519
21 января, чт
чт2101:00−32ююз11890 0.0 103519
04:00−32юв12930 0.0 103319
07:00−32вюв229612 0.0 103219
10:00−28в239496 0.0 102887
13:00−23в249198 0.0 1025213
16:00−22всв2494100 0.0 1022212
19:00−22св2299100 0.7 102187
22:00−21всв1199100 0.4 101925
22 января, пт
пт2201:00−20юв1198100 0.5 101820
04:00−18в1197100 0.1 101620
07:00−17юв1295100 0.1 101420
10:00−16вюв1194100 0.0 101220
13:00−13вюв1291100 0.0 1010136
16:00−12всв2396100 0.2 1009135
19:00−13всв2396100 0.8 1008107
22:00−13ссв2396100 0.9 1007122
23 января, сб
сб2301:00−14с3496100 2.0 1008163
04:00−14зсз1396100 1.3 1012134
07:00−13зсз5994100 1.9 1016432
10:00−15сз51091100 0.1 1022410
13:00−16зсз4691100 0.2 1026393
16:00−17сз129699 0.1 102825
19:00−21ю129989 0.1 102920
22:00−19ю1192100 0.0 103020
24 января, вс
вс2401:00−17зюз1297100 0.7 103167
04:00−19з1198100 0.2 103320
07:00−19зюз3389100 0.2 103467
10:00−19юз238999 0.0 103557
13:00−15юз4885100 0.0 1034649
16:00−15зюз2289100 0.0 103335
19:00−19юз238696 0.0 103420
22:00−18ю2385100 0.0 103427